Regional Weather Roundup
Issued by NWS

Home | Current Version | Previous Version | Text Only | Print | Product List | Glossary On
Versions: 1 2 3 4 5 6 7 8 9 10 11 12 13 14 15 16 17 18 19 20 21 22 23 24 25 26 27 28 29 30 31 32 33 34 35 36 37 38 39 40 41 42 43 44 45 46 47 48 49 50
000
ASUS43 KTOP 020559
RWRKS

WEATHER ROUNDUP FOR KANSAS
NATIONAL WEATHER SERVICE GOODLAND KS
100 AM CDT WED SEP 02 2015

NOTE:  "FAIR" INDICATES FEW OR NO CLOUDS BELOW 12,000 FEET WITH NO
SIGNIFICANT WEATHER AND/OR OBSTRUCTIONS TO VISIBILITY.

KSZ001>006-013>018-027>032-041>047-020700-
NORTHWEST KANSAS

CITY           SKY/WX    TMP DP  RH WIND       PRES   REMARKS
GOODLAND       PTCLDY    72  57  59 S6        29.99S
6HR MIN TEMP:  68; 6HR MAX TEMP:  91;

HAYS           FAIR      81  55  41 S12       29.94S
HILL CITY      FAIR      80  58  46 S12       29.92F
6HR MIN TEMP:  77; 6HR MAX TEMP:  95;

RUSSELL        FAIR      78  60  53 S14       29.93S
6HR MIN TEMP:  78; 6HR MAX TEMP:  95;

$$

KSZ061>065-074>080-084>089-020700-
SOUTHWEST KANSAS

CITY           SKY/WX    TMP DP  RH WIND       PRES   REMARKS
DODGE CITY     FAIR      76  54  46 S16       29.99F
6HR MIN TEMP:  76; 6HR MAX TEMP:  92;

ELKHART          N/A     72  56  57 S8          N/A
GARDEN CITY    FAIR      74  56  53 SE12      29.98S
6HR MIN TEMP:  74; 6HR MAX TEMP:  89;

GREAT BEND     FAIR      79  61  53 S16       29.95F
LIBERAL        FAIR      77  54  44 S14       30.02R
$$

KSZ066>073-081>083-090>101-020700-
SOUTHEAST KANSAS

CITY           SKY/WX    TMP DP  RH WIND       PRES   REMARKS
CHANUTE        FAIR      72  68  87 SE7       30.03F
6HR MIN TEMP:  72; 6HR MAX TEMP:  84;

COFFEYVILLE    FAIR      72  68  87 S5        30.02F
6HR MIN TEMP:  72; 6HR MAX TEMP:  83;

HUTCHINSON     FAIR      79  66  64 S10       29.98S
6HR MIN TEMP:  79; 6HR MAX TEMP:  91;

NEWTON         FAIR      77  63  61 S12       30.02F
PARSONS        FAIR      73  68  84 SE3       30.04S
6HR MIN TEMP:  73; 6HR MAX TEMP:  83;

WICHITA INTL   MOCLDY    78  65  63 S13       29.99S
6HR MIN TEMP:  78; 6HR MAX TEMP:  88;

WICHITA JABRA  FAIR      76  66  71 S13       30.00S
6HR MIN TEMP:  76; 6HR MAX TEMP:  86;

WINFIELD       FAIR      76  66  71 S9        30.02S
6HR MIN TEMP:  76; 6HR MAX TEMP:  87;

$$

KSZ007>012-019>026-033>040-048>060-102>105-020700-
NORTHEAST KANSAS

CITY           SKY/WX    TMP DP  RH WIND       PRES   REMARKS
CONCORDIA      FAIR      77  66  68 S17       29.92F
6HR MIN TEMP:  76; 6HR MAX TEMP:  86;

EMPORIA        FAIR      74  67  78 S14       30.00S
6HR MIN TEMP:  74; 6HR MAX TEMP:  84;

LAWRENCE       FAIR      74  66  76 SE6       30.00S
6HR MIN TEMP:  72; 6HR MAX TEMP:  85;

MANHATTAN      FAIR      80  68  66 S14       29.94F
6HR MIN TEMP:  80; 6HR MAX TEMP:  88;

OLATHE IND     FAIR      73  66  78 S9        30.03S
6HR MIN TEMP:  72; 6HR MAX TEMP:  83;

OLATHE EXE     FAIR      71  65  81 S6        30.02F
6HR MIN TEMP:  70; 6HR MAX TEMP:  82;

SALINA         FAIR      81  66  60 S17G28    29.94F
6HR MIN TEMP:  81; 6HR MAX TEMP:  91;

TOPEKA BILLARD FAIR      78  67  68 S9        29.99S
6HR MIN TEMP:  77; 6HR MAX TEMP:  85;

TOPEKA FORBES  FAIR      77  67  71 S9        29.99S
6HR MIN TEMP:  76; 6HR MAX TEMP:  85;

$$


USA.gov is the U.S. government's official web portal to all federal, state and local government web resources and services.